STARLINK-1840 (47131 NORAD) Tracking and Keplerian Element Data

This shows tracking and keplerian element data for the satellite.

Feedback or suggestion? Click here.




ElementValue
Catalog47131
NameSTARLINK-1840
Epoch Orbit1593
Epoch Day60.91667824
Epoch Year2021
RAAN241.2239
Inclination53.0505
Eccentricity0.0004465
Argument of Perigee273.9319
Mean Anonmoly60.1248
Mean Motion15.32948877
Decay Rate-0.00526554
L11 47131U 20088K 21060.91667824 -.00526554 00000-0 -17465-1 0 9999
L22 47131 53.0505 241.2239 0004465 273.9319 60.1248 15.32948877 15935

Live tracking and technical data element details for STARLINK-1840 (NORAD 47131). STARLINK-1840 can be tracked NOW for your location showing map with azimuth and elevation plus other details from your city location.

Track the satellite on the map from your city or location and see movement details for azimuth, elevation, latitude, longitude, range, height, and movement on the map or in text.







IsCatalogInMostPopularTable: catalog: 47131, numindb: 26
Update: records affected: 1



GetName: 47131 STARLINK-1840

Hit Count: updated at: Tue, 02 Mar 2021 13:42:33 GMT